Mukilteo, WA

6:30 PM PST on December 10, 2016 (GMT -0800)
Snohomish County

Weather History for KPAE - April, 2013

Change the Weather History Date:

Sunday, April 14, 2013

  Actual Average Record
Temperature  
Mean Temperature 44 °F -  
Max Temperature 50 °F 57 °F 70 °F (1980)
Min Temperature 37 °F 39 °F 30 °F (1970)
Degree Days  
Heating Degree Days 22    
Moisture  
Dew Point 36 °F    
Average Humidity 80    
Maximum Humidity 100    
Minimum Humidity 54    
Precipitation  
Precipitation 0.00 in - - ()
Sea Level Pressure  
Sea Level Pressure 29.99 in    
Wind  
Wind Speed 3 mph (South)    
Max Wind Speed 8 mph    
Max Gust Speed -    
Visibility 10 miles    
Events      
Averages and records for this station are not official NWS values.
T = Trace of Precipitation, MM = Missing Value Source: NWS Daily Summary

Daily Weather History Graph

Daily Weather History Graph

Search for Another Location

Airport or City:

Trip Planner

Search our weather history database for the weather conditions in past years. The results will help you decide how hot, cold, wet, or windy it might be!

Date:

Astronomy

Apr. 14, 2013 Rise Set
Actual Time 6:21 AM PDT 7:58 PM PDT
Civil Twilight 5:48 AM PDT 8:31 PM PDT
Nautical Twilight 5:09 AM PDT 9:10 PM PDT
Astronomical Twilight 4:26 AM PDT 9:54 PM PDT
Moon 8:48 AM PDT (4/14) No Moon Set
Length of Visible Light 14h 42m
Length of Day
13h 37m
Waxing Crescent, 18% of the Moon is Illuminated
Apr 14
Waxing Crescent
Apr 18
First Quarter
Apr 25
Full
May 2
Last Quarter
May 9
New

Hourly Weather History & Observations

Time (PDT) Temp. Windchill Dew Point Humidity Pressure Visibility Wind Dir Wind Speed Gust Speed Precip Events Conditions
12:08 AM 41.0 °F 39.0 °F 37.4 °F 87% 29.99 in 10.0 mi WSW 3.5 mph - N/A   Overcast
12:37 AM 42.8 °F - 37.4 °F 81% 30.00 in 10.0 mi Calm Calm - N/A   Overcast
12:44 AM 42.8 °F - 37.4 °F 81% 30.00 in 10.0 mi Calm Calm - N/A   Overcast
12:53 AM 42.1 °F - 37.9 °F 85% 30.01 in 10.0 mi Calm Calm - N/A   Overcast
1:46 AM 41.0 °F - 37.4 °F 87% 30.00 in 10.0 mi Calm Calm - N/A   Mostly Cloudy
1:53 AM 41.0 °F - 37.9 °F 89% 30.01 in 10.0 mi Calm Calm - N/A   Mostly Cloudy
2:04 AM 41.0 °F - 37.4 °F 87% 30.00 in 10.0 mi Calm Calm - N/A   Overcast
2:14 AM 41.0 °F - 37.4 °F 87% 30.00 in 10.0 mi Calm Calm - N/A   Mostly Cloudy
2:50 AM 39.2 °F 35.0 °F 37.4 °F 93% 30.00 in 7.0 mi SSE 5.8 mph - N/A   Overcast
2:53 AM 39.9 °F 37.8 °F 37.9 °F 93% 30.01 in 6.0 mi SSE 3.5 mph - N/A   Overcast
2:59 AM 39.2 °F 35.9 °F 37.4 °F 93% 30.00 in 2.5 mi SSE 4.6 mph - N/A   Overcast
3:13 AM 39.2 °F 35.0 °F 37.4 °F 93% 30.00 in 8.0 mi SSE 5.8 mph - N/A   Overcast
3:53 AM 39.0 °F 34.8 °F 37.9 °F 96% 30.01 in 10.0 mi South 5.8 mph - N/A   Overcast
4:05 AM 39.2 °F 34.2 °F 37.4 °F 93% 30.00 in 10.0 mi South 6.9 mph - N/A   Overcast
4:14 AM 39.2 °F 33.6 °F 37.4 °F 93% 30.00 in 10.0 mi South 8.1 mph - N/A   Overcast
4:26 AM 37.4 °F 32.1 °F 37.4 °F 100% 30.00 in 10.0 mi South 6.9 mph - N/A   Mostly Cloudy
4:36 AM 39.2 °F 35.0 °F 37.4 °F 93% 30.00 in 10.0 mi South 5.8 mph - N/A   Mostly Cloudy
4:53 AM 39.2 °F 35.0 °F 35.6 °F 87% 30.00 in 10.0 mi SSE 5.8 mph - N/A   Mostly Cloudy
5:29 AM 39.2 °F 37.0 °F 37.4 °F 93% 30.00 in 10.0 mi Variable 3.5 mph - N/A   Overcast
5:44 AM 39.2 °F 35.0 °F 37.4 °F 93% 30.00 in 10.0 mi South 5.8 mph - N/A   Overcast
5:53 AM 39.0 °F 34.8 °F 37.0 °F 93% 30.01 in 10.0 mi South 5.8 mph - N/A   Overcast
6:53 AM 39.0 °F 34.0 °F 37.0 °F 93% 30.01 in 10.0 mi SSE 6.9 mph - N/A   Overcast
7:53 AM 39.0 °F 35.7 °F 37.0 °F 93% 30.01 in 10.0 mi SSE 4.6 mph - N/A   Overcast
8:53 AM 39.9 °F 35.8 °F 36.0 °F 86% 30.01 in 10.0 mi SSE 5.8 mph - N/A   Overcast
9:37 AM 42.8 °F 38.6 °F 35.6 °F 76% 29.99 in 10.0 mi South 6.9 mph - N/A   Mostly Cloudy
9:53 AM 42.1 °F 38.4 °F 37.0 °F 82% 30.01 in 10.0 mi South 5.8 mph - N/A   Mostly Cloudy
10:53 AM 44.1 °F 40.8 °F 36.0 °F 73% 30.00 in 10.0 mi South 5.8 mph - N/A   Overcast
11:53 AM 45.0 °F - 36.0 °F 71% 29.99 in 10.0 mi Calm Calm - N/A   Mostly Cloudy
12:10 PM 44.6 °F 41.4 °F 37.4 °F 76% 29.98 in 10.0 mi Variable 5.8 mph - N/A   Overcast
12:30 PM 42.8 °F 40.1 °F 37.4 °F 81% 29.98 in 10.0 mi NNE 4.6 mph - N/A   Overcast
12:53 PM 43.0 °F - 35.1 °F 74% 29.99 in 10.0 mi Calm Calm - 0.00 in   Overcast
1:53 PM 48.0 °F - 35.1 °F 61% 29.99 in 10.0 mi Calm Calm - N/A   Overcast
2:28 PM 48.2 °F - 33.8 °F 58% 29.96 in 10.0 mi Variable 4.6 mph - N/A   Scattered Clouds
2:53 PM 48.9 °F - 35.1 °F 59% 29.97 in 10.0 mi NW 6.9 mph - N/A   Clear
3:53 PM 48.9 °F - 33.1 °F 54% 29.95 in 10.0 mi Variable 6.9 mph - N/A   Clear
4:53 PM 50.0 °F - 34.0 °F 54% 29.94 in 10.0 mi Variable 5.8 mph - N/A   Clear
5:53 PM 48.9 °F - 33.1 °F 54% 29.94 in 10.0 mi WNW 5.8 mph - N/A   Clear
6:53 PM 48.9 °F - 34.0 °F 56% 29.94 in 10.0 mi North 4.6 mph - N/A   Clear
7:53 PM 45.0 °F - 34.0 °F 65% 29.94 in 10.0 mi Calm Calm - N/A   Clear
8:53 PM 44.1 °F 41.5 °F 32.0 °F 63% 29.95 in 10.0 mi WNW 4.6 mph - N/A   Partly Cloudy
9:53 PM 43.0 °F - 30.9 °F 62% 29.95 in 10.0 mi Calm Calm - N/A   Clear
10:53 PM 39.9 °F - 30.9 °F 70% 29.96 in 10.0 mi Calm Calm - N/A   Clear
11:53 PM 41.0 °F - 33.1 °F 73% 29.96 in 10.0 mi Calm Calm - N/A   Scattered Clouds